Dover, DE

4:25 AM EDT on August 27, 2016 (GMT -0400)
Dover Air Force Base

Weather History for KDOV - October, 2012

Change the Weather History Date:

Wednesday, October 24, 2012

  Actual Average Record
Temperature  
Mean Temperature 66 °F -  
Max Temperature 77 °F 68 °F 80 °F (2001)
Min Temperature 54 °F 45 °F 25 °F (1969)
Growing Degree Days 16 (Base 50)    
Moisture  
Dew Point 58 °F    
Average Humidity 76    
Maximum Humidity 100    
Minimum Humidity 53    
Precipitation  
Precipitation 0.00 in - - ()
Sea Level Pressure  
Sea Level Pressure 30.10 in    
Wind  
Wind Speed 6 mph (ESE)    
Max Wind Speed 10 mph    
Max Gust Speed -    
Visibility 9 miles    
Events Rain    
Averages and records for this station are not official NWS values.
T = Trace of Precipitation, MM = Missing Value Source: NWS Daily Summary

Daily Weather History Graph

Daily Weather History Graph

Search for Another Location

Airport or City:

Trip Planner

Search our weather history database for the weather conditions in past years. The results will help you decide how hot, cold, wet, or windy it might be!

Date:

Astronomy

Oct. 24, 2012 Rise Set
Actual Time 7:21 AM EDT 6:10 PM EDT
Civil Twilight 6:53 AM EDT 6:37 PM EDT
Nautical Twilight 6:22 AM EDT 7:08 PM EDT
Astronomical Twilight 5:51 AM EDT 7:39 PM EDT
Moon 3:22 PM EDT (10/24) 2:16 AM EDT (10/24)
Length of Visible Light 11h 43m
Length of Day
10h 48m
Waxing Gibbous, 76% of the Moon is Illuminated
Oct 24
Waxing Gibbous
Oct 29
Full
Nov 6
Last Quarter
Nov 13
New
Nov 20
First Quarter

Hourly Weather History & Observations

Time (EDT) Temp. Dew Point Humidity Pressure Visibility Wind Dir Wind Speed Gust Speed Precip Events Conditions
12:55 AM 62.6 °F 51.6 °F 67% 30.07 in 10.0 mi South 10.4 mph - N/A   Mostly Cloudy
1:55 AM 62.2 °F 53.2 °F 72% 30.07 in 10.0 mi SSW 9.2 mph - N/A   Overcast
2:55 AM 61.9 °F 54.3 °F 76% 30.07 in 10.0 mi SSW 6.9 mph - N/A   Mostly Cloudy
3:55 AM 60.8 °F 54.7 °F 80% 30.06 in 10.0 mi SSW 5.8 mph - N/A   Partly Cloudy
4:55 AM 59.9 °F 54.3 °F 82% 30.07 in 10.0 mi Calm Calm - N/A   Clear
5:55 AM 57.7 °F 53.6 °F 86% 30.09 in 10.0 mi Calm Calm - N/A   Mostly Cloudy
6:55 AM 55.0 °F 53.4 °F 94% 30.10 in 10.0 mi Calm Calm - N/A   Partly Cloudy
7:55 AM 54.0 °F 52.5 °F 95% 30.11 in 10.0 mi Calm Calm - N/A   Partly Cloudy
8:55 AM 61.9 °F 57.4 °F 85% 30.12 in 10.0 mi Calm Calm - N/A   Clear
9:55 AM 65.7 °F 57.0 °F 74% 30.12 in 10.0 mi West 3.5 mph - N/A   Partly Cloudy
10:55 AM 69.3 °F 57.2 °F 65% 30.12 in 10.0 mi WNW 4.6 mph - N/A   Scattered Clouds
11:55 AM 69.8 °F 58.3 °F 67% 30.11 in 10.0 mi ENE 6.9 mph - N/A   Scattered Clouds
12:41 PM 71.6 °F 59.0 °F 64% 30.09 in 10.0 mi Calm Calm - N/A Rain Light Rain
12:50 PM 73.4 °F 59.0 °F 61% 30.09 in 10.0 mi Calm Calm - N/A   Clear
12:55 PM 73.8 °F 57.9 °F 58% 30.09 in 10.0 mi Variable 3.5 mph - 0.00 in   Clear
1:19 PM 75.2 °F 59.0 °F 57% 30.09 in 10.0 mi Calm Calm - N/A   Light Drizzle
1:28 PM 75.2 °F 59.0 °F 57% 30.09 in 10.0 mi Calm Calm - N/A   Clear
1:48 PM 77.0 °F 59.0 °F 54% 30.08 in 9.0 mi ENE 5.8 mph - N/A Rain Light Rain
1:55 PM 76.5 °F 58.3 °F 53% 30.08 in 7.0 mi Variable 6.9 mph - 0.00 in Rain Light Rain
1:58 PM 77.0 °F 59.0 °F 54% 30.08 in 6.0 mi ENE 6.9 mph - N/A   Haze
2:18 PM 75.2 °F 59.0 °F 57% 30.07 in 2.5 mi ENE 8.1 mph - N/A   Haze
2:28 PM 75.2 °F 57.2 °F 53% 30.07 in 2.0 mi East 8.1 mph - N/A   Haze
2:55 PM 73.6 °F 58.5 °F 59% 30.07 in 10.0 mi ESE 8.1 mph - N/A   Clear
3:55 PM 74.1 °F 56.5 °F 54% 30.06 in 10.0 mi East 5.8 mph - N/A   Clear
4:55 PM 72.5 °F 56.7 °F 57% 30.07 in 10.0 mi East 5.8 mph - N/A   Clear
5:55 PM 64.9 °F 58.5 °F 79% 30.08 in 10.0 mi ESE 9.2 mph - N/A   Clear
6:55 PM 62.6 °F 60.6 °F 93% 30.11 in 10.0 mi ESE 6.9 mph - N/A   Clear
7:28 PM 62.6 °F 60.8 °F 94% 30.12 in 10.0 mi ESE 6.9 mph - N/A   Partly Cloudy
7:41 PM 62.6 °F 60.8 °F 94% 30.12 in 10.0 mi ESE 4.6 mph - N/A   Mostly Cloudy
7:55 PM 61.5 °F 60.8 °F 97% 30.12 in 10.0 mi ESE 5.8 mph - N/A   Overcast
8:19 PM 62.6 °F 60.8 °F 94% 30.13 in 10.0 mi SE 6.9 mph - N/A   Overcast
8:55 PM 61.5 °F 60.4 °F 96% 30.14 in 10.0 mi ESE 6.9 mph - N/A   Overcast
9:55 PM 61.5 °F 60.1 °F 95% 30.15 in 10.0 mi East 6.9 mph - N/A   Overcast
9:58 PM 60.8 °F 60.8 °F 100% 30.15 in 10.0 mi East 8.1 mph - N/A   Overcast
10:55 PM 61.5 °F 59.7 °F 94% 30.16 in 10.0 mi ESE 6.9 mph - N/A   Overcast
11:20 PM 62.6 °F 59.0 °F 88% 30.16 in 10.0 mi East 4.6 mph - N/A   Overcast
11:55 PM 61.9 °F 59.9 °F 93% 30.16 in 10.0 mi East 6.9 mph - N/A   Overcast